STARLINK-11169, 60064

Orbit data source: Space-Track

STARLINK-11169, 60064 is a payload satellite owned by SpaceX/Seattle (US) in LEO that was launched on Wed, 19 Jun 2024 UTC via an FALCON 9 launch vehicle from the Air Force Western Test Range (AFWTR). Payload-class satellites include a variety of spacecraft equipped with specific instruments for various scientific and technological missions. These include communications satellites like Starlink; space stations such as the ISS; scientific satellites like the Hubble; Earth observation satellites from companies like Planet Labs, Umbra, and HawkEye 360; GPS; miniature CubeSats for education and research; and military/defense satellites.

Loading next visibility...
Identifier
60064, 2024-113F
Orbit
LEO
Country
Flag of USUS
Related business
Manufacturer
SpaceX/Seattle
Mission
Operational Commercial Communications
Bus & Motor
STARLINK V2MD, Unknown motor
Mass
960 kg wet, ~910 kg dry
Launch date (UTC)
2024-06-19 (2 years ago)
Launch vehicle
FALCON 9
Launch site
Air Force Western Test Range (AFWTR)
Object type
Payload
Rocket body
Debris
Shape & HBR
Box + 2 Pan, 18.1 m
Radar Cross Section
36.964 m², Large (>1 m²)

Expand to show TLE details & history
Last TLE update: 22 hours ago

TLE from 22 hours ago
0 STARLINK-11169
1 60064U 24113F   26171.07233504  .00000276  00000-0  71310-5 0  9990
2 60064  53.1596  46.3486 0000808  88.6453 271.4658 15.69713152115648
Epoch: 2026-06-20T01:44Z
TLE epoch observation values (Epoch: 2026-06-20T01:44:09.747Z)
Latitude
0.00002°
Longitude
112.01579°
Altitude
360.619 km
Speed
7.694 km/s
True Right ascension
03h 05m 23s
True Declination
0° 00' 00"
Sunlit
Object was in daylight at epoch
Visualization orbit readout
Latitude
Unknown
Longitude
Unknown
Altitude
Unknown
Speed
Unknown
Apparent Right ascension
Unknown
Apparent Declination
Unknown
Sunlit
N/A
Visualization observer readout
Local Sidereal Time
10:19:52
Azimuth
Unknown
Elevation
Unknown
Doppler factor
Unknown
Orbital elements
Apogee altitude
360.523 km
Perigee altitude
359.434 km
Semi-major axis
6,738.115 km
Eccentricity
0.00008
Inclination
53.1596°
RAAN
46.3486°
Arg. of periapsis
88.6453°
True anomaly
271.45654°
Mean anomaly
271.4658°
Eccentric anomaly
271.46117°
Mean motion
3.92406 °/min
Orbital period
91.74 mins
BSTAR
0.000007131
Loading maneuver chart data...
Computing Atmospheric mass density...
Loading historical data...
Loading historical data...
Loading historical data...
Loading historical data...
Loading historical data...
Loading historical data...
Loading historical data...

Documentation

Showing up to 5 results
|